Location: Brno
(49.2000°N, 16.6330°E)
Time: 17:28:00
(UTC+02:00)

Transit 4A - Pass Details

Date: 30 July 2021
Orbit: 871 x 974 km, 66.8° (Epoch: 16 September)

Event Time Altitude Azimuth Distance (km) Brightness Sun altitude
Rises 00:13:34 0° 173° (S) 3,493 - -21.5°
Reaches altitude 10° 00:16:30 10° 160° (SSE) 2,544 - -21.6°
Exits shadow 00:20:47 24° 114° (ESE) 1,734 9.0 -21.7°
Maximum altitude 00:21:06 24° 109° (ESE) 1,729 9.0 -21.7°
Drops below altitude 10° 00:25:40 10° 57° (ENE) 2,529 10.5 -21.9°
Sets 00:28:34 0° 44° (NE) 3,468 11.4 -21.9°
